TimeCDT,TemperatureF,Dew PointF,Humidity,Sea Level PressureIn,VisibilityMPH,Wind Direction,Wind SpeedMPH,Gust SpeedMPH,PrecipitationIn,Events,Conditions,WindDirDegrees,DateUTC
12:15 AM,70.7,61.7,73,30.01,10.0,SSE,8.1,-,N/A,,Clear,160,2012-10-22 05:15:00
12:55 AM,70.0,62.1,76,30.01,10.0,SSE,5.8,-,N/A,,Clear,160,2012-10-22 05:55:00
1:35 AM,68.9,62.6,80,30.01,10.0,SSE,5.8,-,N/A,,Clear,160,2012-10-22 06:35:00
1:55 AM,68.4,62.1,80,30.02,10.0,South,5.8,-,N/A,,Clear,170,2012-10-22 06:55:00
2:15 AM,68.0,62.1,81,30.02,10.0,SSE,4.6,-,N/A,,Clear,160,2012-10-22 07:15:00
2:35 AM,67.3,61.7,82,30.02,10.0,SSE,4.6,-,N/A,,Clear,160,2012-10-22 07:35:00
2:55 AM,67.1,61.7,83,30.02,10.0,SSE,3.5,-,N/A,,Clear,160,2012-10-22 07:55:00
3:15 AM,66.4,61.3,84,30.02,10.0,SE,6.9,-,N/A,,Clear,140,2012-10-22 08:15:00
3:55 AM,65.7,61.0,85,30.02,10.0,SSE,6.9,-,N/A,,Clear,150,2012-10-22 08:55:00
4:15 AM,65.3,60.8,85,30.02,10.0,SSE,5.8,-,N/A,,Clear,150,2012-10-22 09:15:00
4:35 AM,64.9,60.8,86,30.02,10.0,SE,5.8,-,N/A,,Clear,140,2012-10-22 09:35:00
4:55 AM,64.9,60.8,86,30.02,10.0,SSE,4.6,-,N/A,,Clear,150,2012-10-22 09:55:00
5:15 AM,64.4,60.6,88,30.03,10.0,SE,4.6,-,N/A,,Clear,140,2012-10-22 10:15:00
5:35 AM,64.4,60.8,88,30.04,10.0,SSE,4.6,-,N/A,,Clear,150,2012-10-22 10:35:00
5:55 AM,64.4,60.8,88,30.05,10.0,SSE,4.6,-,N/A,,Clear,150,2012-10-22 10:55:00
6:15 AM,64.6,61.3,89,30.05,10.0,SSE,5.8,-,N/A,,Clear,160,2012-10-22 11:15:00
6:55 AM,64.6,61.5,90,30.06,10.0,SSE,4.6,-,N/A,,Clear,150,2012-10-22 11:55:00
7:15 AM,64.6,61.7,90,30.07,10.0,SSE,4.6,-,N/A,,Clear,160,2012-10-22 12:15:00
7:35 AM,64.9,61.9,90,30.07,10.0,SSE,4.6,-,N/A,,Clear,150,2012-10-22 12:35:00
7:55 AM,65.3,62.1,89,30.07,10.0,SE,5.8,-,N/A,,Clear,140,2012-10-22 12:55:00
8:15 AM,66.2,62.6,88,30.08,10.0,SE,6.9,-,N/A,,Clear,140,2012-10-22 13:15:00
8:35 AM,67.8,63.0,84,30.09,10.0,SE,5.8,-,N/A,,Clear,140,2012-10-22 13:35:00
8:55 AM,68.9,63.1,82,30.09,10.0,SSE,6.9,-,N/A,,Clear,150,2012-10-22 13:55:00
9:15 AM,70.2,63.5,79,30.09,10.0,SE,6.9,-,N/A,,Clear,140,2012-10-22 14:15:00
9:35 AM,72.0,64.4,77,30.09,10.0,SSE,6.9,-,N/A,,Clear,160,2012-10-22 14:35:00
9:55 AM,73.2,64.4,74,30.09,10.0,SSE,8.1,-,N/A,,Clear,160,2012-10-22 14:55:00
10:15 AM,73.9,64.4,72,30.10,10.0,South,6.9,-,N/A,,Scattered Clouds,170,2012-10-22 15:15:00
10:35 AM,75.6,64.8,69,30.10,10.0,SSE,8.1,-,N/A,,Scattered Clouds,160,2012-10-22 15:35:00
10:55 AM,76.3,64.4,67,30.09,10.0,SSE,8.1,-,N/A,,Clear,160,2012-10-22 15:55:00
11:15 AM,77.4,62.1,59,30.09,10.0,South,6.9,-,N/A,,Clear,170,2012-10-22 16:15:00
11:35 AM,78.8,61.7,56,30.09,10.0,South,6.9,-,N/A,,Clear,170,2012-10-22 16:35:00
11:55 AM,79.0,59.0,50,30.09,10.0,SSE,10.4,-,N/A,,Clear,160,2012-10-22 16:55:00
12:15 PM,80.6,59.5,49,30.08,10.0,SSE,6.9,-,N/A,,Clear,160,2012-10-22 17:15:00
12:35 PM,81.3,58.5,46,30.07,10.0,South,8.1,-,N/A,,Clear,190,2012-10-22 17:35:00
12:55 PM,81.9,58.3,45,30.07,10.0,SSE,8.1,-,N/A,,Clear,160,2012-10-22 17:55:00
1:15 PM,83.3,58.8,43,30.06,10.0,South,8.1,-,N/A,,Clear,170,2012-10-22 18:15:00
1:35 PM,83.7,59.4,44,30.05,10.0,South,8.1,-,N/A,,Clear,190,2012-10-22 18:35:00
1:55 PM,83.8,59.4,43,30.04,10.0,South,9.2,-,N/A,,Clear,180,2012-10-22 18:55:00
2:15 PM,83.8,58.6,42,30.03,10.0,SSE,9.2,-,N/A,,Clear,150,2012-10-22 19:15:00
2:35 PM,84.6,58.6,41,30.02,10.0,SSE,6.9,-,N/A,,Clear,160,2012-10-22 19:35:00
2:55 PM,84.9,57.0,38,30.01,10.0,SSE,6.9,-,N/A,,Clear,150,2012-10-22 19:55:00
3:15 PM,85.1,57.6,39,30.01,10.0,SE,10.4,-,N/A,,Clear,140,2012-10-22 20:15:00
3:35 PM,85.1,57.4,39,30.01,10.0,South,6.9,-,N/A,,Clear,170,2012-10-22 20:35:00
3:55 PM,85.3,56.8,38,30.01,10.0,South,6.9,-,N/A,,Clear,180,2012-10-22 20:55:00
4:15 PM,85.8,58.3,39,30.01,10.0,SSW,6.9,-,N/A,,Scattered Clouds,200,2012-10-22 21:15:00
4:35 PM,85.1,58.8,41,30.01,10.0,South,5.8,-,N/A,,Mostly Cloudy,190,2012-10-22 21:35:00
4:55 PM,84.4,59.0,42,30.01,10.0,SSE,5.8,-,N/A,,Mostly Cloudy,150,2012-10-22 21:55:00
5:15 PM,82.6,59.4,45,30.00,10.0,SSE,5.8,-,N/A,,Scattered Clouds,150,2012-10-22 22:15:00
5:35 PM,81.7,59.4,47,30.00,10.0,SE,4.6,-,N/A,,Clear,140,2012-10-22 22:35:00
5:55 PM,80.1,60.8,52,29.99,10.0,SE,3.5,-,N/A,,Clear,130,2012-10-22 22:55:00
6:15 PM,77.9,62.1,58,30.00,10.0,Calm,Calm,-,N/A,,Clear,0,2012-10-22 23:15:00
6:35 PM,76.6,62.1,61,30.00,10.0,Calm,Calm,-,N/A,,Clear,0,2012-10-22 23:35:00
6:55 PM,73.6,62.6,68,30.00,10.0,Calm,Calm,-,N/A,,Clear,0,2012-10-22 23:55:00
7:15 PM,72.3,63.5,74,30.00,10.0,Calm,Calm,-,N/A,,Clear,0,2012-10-23 00:15:00
7:35 PM,73.0,62.6,70,30.01,10.0,Calm,Calm,-,N/A,,Clear,0,2012-10-23 00:35:00
7:55 PM,71.8,62.1,71,30.01,10.0,Calm,Calm,-,N/A,,Clear,0,2012-10-23 00:55:00
8:15 PM,73.2,60.8,65,30.01,10.0,East,3.5,-,N/A,,Clear,100,2012-10-23 01:15:00
8:55 PM,71.8,60.3,67,30.02,10.0,ESE,3.5,-,N/A,,Clear,120,2012-10-23 01:55:00
9:15 PM,72.3,59.7,64,30.02,10.0,ESE,4.6,-,N/A,,Clear,120,2012-10-23 02:15:00
9:55 PM,71.8,59.4,65,30.02,10.0,SE,5.8,-,N/A,,Clear,130,2012-10-23 02:55:00
10:15 PM,71.6,59.2,65,30.02,10.0,SE,6.9,-,N/A,,Clear,140,2012-10-23 03:15:00
10:35 PM,71.6,59.2,65,30.02,10.0,SE,5.8,-,N/A,,Clear,140,2012-10-23 03:35:00
10:55 PM,71.2,59.2,66,30.01,10.0,SE,6.9,-,N/A,,Clear,140,2012-10-23 03:55:00
11:15 PM,70.9,59.2,66,30.01,10.0,SE,6.9,-,N/A,,Clear,140,2012-10-23 04:15:00
11:35 PM,70.7,59.0,66,30.01,10.0,SSE,5.8,-,N/A,,Clear,150,2012-10-23 04:35:00
11:55 PM,69.8,59.0,68,30.01,10.0,SE,4.6,-,N/A,,Clear,140,2012-10-23 04:55:00